Location: Malvern Link
(52.1333°N, 2.3000°W)
Time: 03:43:30
(UTC+00:00)

Cosmos 1025 Rocket - Pass Details

Date: 18 September 2020
Orbit: 595 x 617 km, 82.5° (Epoch: 22 October)

Event Time Altitude Azimuth Distance (km) Brightness Sun altitude
Rises 20:21:53 0° 343° (NNW) 2,886 7.2 -19.2°
Reaches altitude 10° 20:24:13 10° 335° (NNW) 1,980 6.4 -19.6°
Maximum altitude 20:28:15 37° 268° (W) 960 4.5 -20.1°
Drops below altitude 10° 20:32:16 10° 201° (SSW) 1,974 5.5 -20.6°
Enters shadow 20:33:04 - 198° (SSW) 2,272 5.8 -20.7°
